This is the latest recevied weather packets stored in our database for station/object K4NSC-13. If no packets are shown the sender has not sent any weather packets the latest 10 day(s).
| Time | Temp. | Humidity | Pressure | Rain* | Wind** | Luminosity | Snow |
|---|---|---|---|---|---|---|---|
| 1778063144 | 17.22° C | 86% | 1014.5 hPa | 0 mm | - | 1 W/m² | - |
| 1778059522 | 16.67° C | 88% | 1014.9 hPa | 0 mm | - | 0 W/m² | - |
| 1778057131 | 16.67° C | 87% | 1015 hPa | 0 mm | - | 0 W/m² | - |
| 1778054726 | 16.67° C | 86% | 1015.2 hPa | 0 mm | - | 0 W/m² | - |
| 1778054126 | 16.67° C | 85% | 1015.3 hPa | 0 mm | - | 0 W/m² | - |
| 1778053546 | 16.67° C | 85% | 1015.3 hPa | 0 mm | - | 0 W/m² | - |
| 1778048169 | 17.78° C | 82% | 1015.1 hPa | 0 mm | - | 0 W/m² | - |
| 1778046319 | 17.78° C | 81% | 1015.7 hPa | 0 mm | - | 0 W/m² | - |
| 1778045128 | 17.78° C | 80% | 1015.6 hPa | 0 mm | - | 0 W/m² | - |
| 1778044528 | 17.78° C | 80% | 1015.4 hPa | 0 mm | - | 0 W/m² | - |
| 1778041530 | 18.33° C | 78% | 1015.6 hPa | 0 mm | - | 0 W/m² | - |
| 1778036132 | 20° C | 73% | 1015.2 hPa | 0 mm | - | 0 W/m² | - |
| 1778035523 | 20° C | 71% | 1015.2 hPa | 0 mm | - | 0 W/m² | - |
| 1778034322 | 20.56° C | 68% | 1015.4 hPa | 0 mm | - | 0 W/m² | - |
| 1778024153 | 26.67° C | 44% | 1013.2 hPa | 0 mm | - | 33 W/m² | - |
| 1778019919 | 27.22° C | 42% | 1013.2 hPa | 0 mm | - | 80 W/m² | - |
| 1778015120 | 28.33° C | 42% | 1013.6 hPa | 0 mm | - | 292 W/m² | - |
| 1778012721 | 27.22° C | 43% | 1014 hPa | 0 mm | - | 731 W/m² | - |
| 1778007322 | 27.78° C | 43% | 1015.3 hPa | 0 mm | - | 927 W/m² | - |
| 1778004922 | 27.78° C | 43% | 1015.8 hPa | 0 mm | - | 1015 W/m² | - |
| 1778003723 | 26.67° C | 45% | 1015.6 hPa | 0 mm | - | 998 W/m² | - |
| 1778002522 | 26.67° C | 46% | 1015.7 hPa | 0 mm | - | 535 W/m² | - |
| 1778001324 | 26.11° C | 49% | 1016 hPa | 0 mm | - | 814 W/m² | - |
| 1778000123 | 26.11° C | 49% | 1016.5 hPa | 0 mm | - | 905 W/m² | - |
| 1777999523 | 25.56° C | 50% | 1016.6 hPa | 0 mm | - | 1007 W/m² | - |
* Rain latest hour (hover to see other rain measurements)
** Current wind speed in m/s (hover to see current wind gust speed)